Selinsgrove, PA

4:11 PM EDT on June 27, 2017 (GMT -0400)
Penn Valley

Weather History for KSEG - March, 2013

Change the Weather History Date:

Saturday, March 23, 2013

  Actual Average (KIPT) Record (KIPT)
Temperature  
Mean Temperature 36 °F -  
Max Temperature 46 °F 48 °F 80 °F (1938)
Min Temperature 27 °F 29 °F 8 °F (1906)
Degree Days  
Heating Degree Days 28    
Moisture  
Dew Point 20 °F    
Average Humidity 53    
Maximum Humidity 81    
Minimum Humidity 37    
Precipitation  
Precipitation 0.00 in - - ()
Sea Level Pressure  
Sea Level Pressure 29.98 in    
Wind  
Wind Speed 7 mph (WNW)    
Max Wind Speed 14 mph    
Max Gust Speed 21 mph    
Visibility 10 miles    
Events      
Averages and records for this station are not official NWS values.
T = Trace of Precipitation, MM = Missing Value Source: NWS Daily Summary

Daily Weather History Graph

Daily Weather History Graph

Search for Another Location

Airport or City:

Trip Planner

Search our weather history database for the weather conditions in past years. The results will help you decide how hot, cold, wet, or windy it might be!

Date:

Astronomy

Mar. 23, 2013 Rise Set
Actual Time 7:05 AM EDT 7:23 PM EDT
Civil Twilight 6:38 AM EDT 7:50 PM EDT
Nautical Twilight 6:05 AM EDT 8:22 PM EDT
Astronomical Twilight 5:33 AM EDT 8:55 PM EDT
Moon 3:46 PM EDT (3/23) 4:41 AM EDT (3/23)
Length of Visible Light 13h 12m
Length of Day
12h 17m
Waxing Gibbous, 85% of the Moon is Illuminated
Mar 23
Waxing Gibbous
Mar 27
Full
Apr 3
Last Quarter
Apr 10
New
Apr 18
First Quarter

Hourly Weather History & Observations

Time (EDT) Temp. Windchill Dew Point Humidity Pressure Visibility Wind Dir Wind Speed Gust Speed Precip Events Conditions
12:53 AM 32.0 °F 26.4 °F 19.9 °F 61% 29.99 in 10.0 mi Variable 5.8 mph - N/A   Overcast
1:53 AM 32.0 °F 22.5 °F 19.9 °F 61% 29.99 in 10.0 mi WNW 12.7 mph 18.4 mph N/A   Overcast
3:53 AM 32.0 °F 23.6 °F 19.9 °F 61% 29.97 in 10.0 mi NW 10.4 mph - N/A   Overcast
4:53 AM 32.0 °F 24.2 °F 19.9 °F 61% 29.97 in 10.0 mi NW 9.2 mph - N/A   Overcast
5:53 AM 30.9 °F 27.5 °F 19.9 °F 64% 29.97 in 10.0 mi WNW 3.5 mph - N/A   Overcast
6:53 AM 28.9 °F - 19.0 °F 67% 29.97 in 10.0 mi Calm Calm - N/A   Clear
7:53 AM 28.9 °F - 21.0 °F 72% 29.98 in 10.0 mi Calm Calm - N/A   Clear
8:53 AM 35.1 °F 28.6 °F 19.9 °F 54% 29.98 in 10.0 mi NW 8.1 mph - N/A   Clear
9:53 AM 36.0 °F 27.1 °F 19.0 °F 50% 29.98 in 10.0 mi WNW 13.8 mph 19.6 mph N/A   Clear
10:53 AM 39.0 °F 34.8 °F 19.9 °F 46% 29.99 in 10.0 mi West 5.8 mph - N/A   Clear
11:53 AM 41.0 °F 34.3 °F 19.9 °F 43% 29.98 in 10.0 mi WNW 11.5 mph 20.7 mph N/A   Mostly Cloudy
12:53 PM 43.0 °F 37.2 °F 21.9 °F 43% 29.97 in 10.0 mi West 10.4 mph - N/A   Overcast
1:53 PM 42.1 °F 35.7 °F 21.0 °F 43% 29.96 in 10.0 mi West 11.5 mph 16.1 mph N/A   Mostly Cloudy
2:53 PM 42.1 °F 37.7 °F 19.9 °F 41% 29.95 in 10.0 mi Variable 6.9 mph 16.1 mph N/A   Mostly Cloudy
3:53 PM 45.0 °F 39.3 °F 19.9 °F 37% 29.94 in 10.0 mi WNW 11.5 mph 18.4 mph N/A   Overcast
4:53 PM 44.1 °F 38.1 °F 19.0 °F 37% 29.94 in 10.0 mi WNW 11.5 mph 18.4 mph N/A   Mostly Cloudy
5:53 PM 44.1 °F 38.6 °F 19.0 °F 37% 29.95 in 10.0 mi WNW 10.4 mph 19.6 mph N/A   Mostly Cloudy
6:53 PM 41.0 °F 35.2 °F 18.0 °F 40% 29.97 in 10.0 mi WNW 9.2 mph 17.3 mph N/A   Partly Cloudy
7:53 PM 39.0 °F 35.7 °F 19.0 °F 45% 29.99 in 10.0 mi WNW 4.6 mph - N/A   Overcast
8:53 PM 37.0 °F 33.3 °F 19.0 °F 48% 29.99 in 10.0 mi WNW 4.6 mph - N/A   Mostly Cloudy
9:53 PM 33.1 °F - 21.9 °F 64% 30.02 in 10.0 mi Calm Calm - N/A   Clear
10:53 PM 32.0 °F 28.7 °F 19.9 °F 61% 30.00 in 10.0 mi North 3.5 mph - N/A   Clear
11:53 PM 27.0 °F 21.6 °F 21.9 °F 81% 30.01 in 10.0 mi North 4.6 mph - N/A   Clear